Tracking 30402 objects as of 12-May-2025
HD Live streaming from Space Station
objects crossing your sky now

THOR ABLESTAR DEB

Track THOR ABLESTAR DEB now!
10-day predictions


NORAD ID: 475
Int'l Code: 1961-015FM
Perigee: 723.0 km
Apogee: 933.4 km
Inclination: 66.2 °
Period: 101.3 minutes
Semi major axis: 7199 km
RCS: 0.0538 m2 (small)
Launch date: June 29, 1961
Source: United States (US)
Launch site: AIR FORCE EASTERN TEST RANGE (AFETR)

Note: This is SATELLITE DEBRIS
Your satellite tracking list
Your tracking list is empty




NASA's NSSDC Master Catalog

Two Line Element Set (TLE):
1 00475U 61015FM  25131.64986712  .00003302  00000-0  13934-2 0  9994
2 00475  66.2236 355.7527 0146136 348.6243  11.1554 14.21272175230675
Source of the keplerian elements: AFSPC